Home   Weather   Kristiansund   Past weeks

Flag for Norway Past Weather in Kristiansund, Norway — Yesterday and Last 2 Weeks

Now
39 °F

Chilly.


Feels Like: 39 °F
Forecast: 37 / 50 °F
Wind: 2 mph from North

Location: Kristiansund / Kvernberget

Current Time: May 1, 2017 at 12:54:44 am

Latest Report: May 1, 2017 at 12:20 am


Visibility: N/A

Pressure: 30.15 "Hg

Humidity: 87%

Dew Point: 36 °F

Location of KristiansundLocation

Past Weather in Kristiansund — Graph

°F

Kristiansund Temperature Yesterday

Maximum temperature yesterday: 48 °F (at 11:20 am)
Minimum temperature yesterday: 39 °F (at 1:50 am)
Average temperature yesterday: 44 °F

High & Low Weather Summary for the Past Weeks

 TemperatureHumidityPressure
High54 °F (Apr 29, 12:50 pm)100% (Apr 23, 10:50 pm)30.48 "Hg (Apr 23, 10:50 pm)
Low28 °F (Apr 24, 1:50 am)30% (Apr 29, 3:20 pm)29.59 "Hg (Apr 24, 11:20 am)
Average39 °F71%29.96 "Hg
* Reported Apr 15 11:20 pm — Apr 30 11:20 pm, Kristiansund, Weather by CustomWeather, © 2017

Note: Actual official high and low records may vary slightly from our data, if they occured in-between our weather recording intervals... More about our weather records

Advertising

Kristiansund Weather History for the Previous 24 Hours

Scroll right to see more
 ConditionsComfort  
Time TempWeatherWind HumidityBarometerVisibility
11:20 pm
Sun, Apr 30
39 °FChilly.2 mph87%30.15 "HgN/A
10:50 pm39 °FClear.2 mph87%30.15 "Hg10 mi
10:20 pm41 °FClear.5 mph81%30.15 "Hg10 mi
9:20 pm43 °FSunny.3 mph76%30.15 "Hg10 mi
8:50 pm45 °FSunny.3 mph71%30.12 "Hg10 mi
8:20 pm46 °FSunny.3 mph66%30.12 "Hg10 mi
7:50 pm46 °FSunny.3 mph66%30.12 "Hg10 mi
7:20 pm46 °FPassing clouds.6 mph66%30.12 "HgN/A
6:50 pm46 °FSunny.7 mph66%30.12 "Hg10 mi
6:20 pm46 °FScattered clouds.7 mph66%30.12 "HgN/A
5:50 pm46 °FBroken clouds.7 mph66%30.12 "HgN/A
5:20 pm48 °FBroken clouds.7 mph58%30.12 "HgN/A
4:50 pm45 °FBroken clouds.7 mph66%30.12 "HgN/A
4:20 pm46 °FScattered showers. Broken clouds.8 mph66%30.12 "HgN/A
3:50 pm46 °FBroken clouds.8 mph71%30.15 "HgN/A
3:20 pm45 °FBroken clouds.3 mph71%30.15 "HgN/A
2:50 pm45 °FSprinkles. Broken clouds.10 mph81%30.15 "HgN/A
2:20 pm45 °FScattered showers. Broken clouds.10 mph71%30.15 "HgN/A
1:50 pm46 °FScattered clouds.12 mph66%30.12 "HgN/A
1:20 pm46 °FBroken clouds.10 mph66%30.12 "HgN/A
12:50 pm46 °FBroken clouds.9 mph66%30.12 "HgN/A
12:20 pm46 °FBroken clouds.9 mph62%30.12 "HgN/A
11:50 am48 °FBroken clouds.8 mph58%30.12 "HgN/A
11:20 am48 °FOvercast.8 mph58%30.12 "HgN/A
10:50 am46 °FOvercast.6 mph66%30.15 "HgN/A
10:20 am46 °FOvercast.5 mph62%30.15 "HgN/A
9:50 am45 °FOvercast.3 mph66%30.15 "HgN/A
9:20 am46 °FOvercast.2 mph66%30.15 "HgN/A
8:50 am45 °FOvercast.2 mph66%30.15 "HgN/A
8:20 am43 °FMostly cloudy.No wind71%30.15 "HgN/A
7:50 am41 °FMostly cloudy.No wind70%30.15 "HgN/A
7:20 am41 °FMostly cloudy.No wind70%30.15 "HgN/A
6:50 am41 °FOvercast.No wind70%30.15 "HgN/A
6:20 am41 °FPassing clouds.3 mph70%30.15 "HgN/A
5:50 am39 °FPartly sunny.1 mph75%30.15 "HgN/A
5:20 am39 °FOvercast.3 mph75%30.18 "HgN/A
4:50 am39 °FOvercast.2 mph75%30.18 "HgN/A
4:20 am39 °FOvercast.No wind75%30.18 "HgN/A
3:50 am41 °FOvercast.2 mph70%30.18 "HgN/A
3:20 am41 °FOvercast.3 mph70%30.18 "HgN/A
2:50 am39 °FOvercast.2 mph81%30.18 "HgN/A
2:20 am39 °FPassing clouds.1 mph81%30.18 "HgN/A
1:50 am39 °FPassing clouds.No wind75%30.18 "HgN/A
1:20 am41 °FQuite cool.5 mph70%30.18 "HgN/A
12:50 am41 °FPassing clouds.5 mph76%30.18 "HgN/A
12:20 am41 °FPassing clouds.5 mph76%30.18 "HgN/A
Weather by CustomWeather, © 2017

See weather overviewHow to use our weather pages